Regional Weather Roundup
Issued by NWS

Home | Current Version | Previous Version | Graphics & Text | Print | Product List | Glossary On
Versions: 1 2 3 4 5 6 7 8 9 10 11 12 13 14 15 16 17 18 19 20 21 22 23 24 25 26 27 28 29 30 31 32 33 34 35 36 37 38 39 40 41 42 43 44 45 46 47 48 49 50
000
ASUS43 KLMK 202302
RWRKY
KENTUCKY REGIONAL WEATHER ROUNDUP
NATIONAL WEATHER SERVICE LOUISVILLE KY
700 PM EDT MON APR 20 2015

NOTE "FAIR" INDICATES FEW OR NO CLOUDS BELOW 12,000 FEET
WITH NO SIGNIFICANT WEATHER AND/OR OBSTRUCTIONS TO VISIBILITY.

KYZ001>023-026-027-061>063-070>075-210000-
WESTERN AND SOUTH CENTRAL KENTUCKY

CITY           SKY/WX    TMP DP  RH WIND       PRES   REMARKS
PADUCAH        CLOUDY    62  36  37 NW7       29.76R
HENDERSON      PTSUNNY   57  37  47 NW17G24   29.75R
OWENSBORO      PTSUNNY   59  41  51 W15       29.75R
HOPKINSVILLE   MOSUNNY   62  40  45 W15G21    29.76R
BOWLING GREEN  CLOUDY    60  42  51 NW8       29.75R
GLASGOW        NOT AVBL
$$

KYZ024-025-028>034-038-045-046-053-210000-
NORTH CENTRAL KENTUCKY

CITY           SKY/WX    TMP DP  RH WIND       PRES   REMARKS
LOUISVILLE/SDF PTSUNNY   60  38  43 W18       29.70R
LOUISVILLE/LOU CLOUDY    59  37  44 W18G26    29.71R
FORT KNOX      MOSUNNY   57  39  50 W15G25    29.70R
$$

KYZ035>037-039>044-047>052-055>060-089>105-210000-
NORTHEAST KENTUCKY

CITY           SKY/WX    TMP DP  RH WIND       PRES   REMARKS
LEXINGTON      CLOUDY    57  44  62 W13       29.68R
COVINGTON      CLOUDY    55  37  50 W24G35    29.66R
FRANKFORT      CLOUDY    57  40  52 W12       29.67R
$$

KYZ054-064>069-076>088-106>120-210000-
SOUTHEAST KENTUCKY

CITY           SKY/WX    TMP DP  RH WIND       PRES   REMARKS
JACKSON        LGT RAIN  56  52  86 VRB5      29.68R
LONDON         PTSUNNY   59  48  67 W22G31    29.69S
SOMERSET       NOT AVBL
MIDDLESBORO    MOSUNNY   61  52  71 NW3       29.69R
MONTICELLO     CLOUDY    54  51  89 SW8       29.77R
$$



USA.gov is the U.S. government's official web portal to all federal, state and local government web resources and services.